Change the Weather History Date:

Friday, November 22, 2013

  Actual Average (KAXO) Record (KAXO)
Temperature  
Mean Temperature 70 °F -  
Max Temperature 75 °F 65 °F 75 °F (2004)
Min Temperature 66 °F 62 °F 48 °F (2000)
Cooling Degree Days 6    
Growing Degree Days 20 (Base 50)    
Moisture  
Dew Point 69 °F    
Average Humidity 96    
Maximum Humidity 100    
Minimum Humidity 88    
Precipitation  
Precipitation 0.00 in - - ()
Sea Level Pressure  
Sea Level Pressure 30.17 in    
Wind  
Wind Speed 9 mph (ENE)    
Max Wind Speed 13 mph    
Max Gust Speed -    
Visibility 6 miles    
Events Fog    
Averages and records for this station are not official NWS values.
T = Trace of Precipitation, MM = Missing Value Source: NWS Daily Summary

Daily Weather History Graph

Daily Weather History Graph

Search for Another Location

Airport or City:

Trip Planner

Search our weather history database for the weather conditions in past years. The results will help you decide how hot, cold, wet, or windy it might be!

Date:

Astronomy

Nov. 22, 2013 Rise Set
Actual Time 6:27 AM CST 5:00 PM CST
Civil Twilight 6:02 AM CST 5:25 PM CST
Nautical Twilight 5:33 AM CST 5:54 PM CST
Astronomical Twilight 5:04 AM CST 6:23 PM CST
Moon 9:26 PM CST (11/22) 10:15 AM CST (11/22)
Length of Visible Light 11h 23m
Length of Day
10h 32m
Waning Gibbous, 78% of the Moon is Illuminated
Nov 22
Waning Gibbous
Nov 25
Last Quarter
Dec 2
New
Dec 9
First Quarter
Dec 17
Full

Hourly Weather History & Observations

Time (CST) Temp. Dew Point Humidity Pressure Visibility Wind Dir Wind Speed Gust Speed Precip Events Conditions
5:05 AM 66.2 °F 66.2 °F 100% 30.14 in 3.0 mi East 6.9 mph - N/A   Overcast
5:45 AM 66.2 °F 66.2 °F 100% 30.15 in 6.0 mi NE 10.4 mph - N/A   Mostly Cloudy
6:09 AM 66.2 °F 66.2 °F 100% 30.16 in 6.0 mi ENE 11.5 mph - N/A   Scattered Clouds
6:12 AM 66.2 °F 66.2 °F 100% 30.16 in 4.0 mi NE 10.4 mph - N/A   Mostly Cloudy
6:45 AM 66.2 °F 66.2 °F 100% 30.17 in 4.0 mi ENE 5.8 mph - N/A   Mostly Cloudy
7:09 AM 66.2 °F 66.2 °F 100% 30.19 in 4.0 mi NE 6.9 mph - N/A   Overcast
7:35 AM 66.2 °F 66.2 °F 100% 30.20 in 4.0 mi NE 10.4 mph - N/A   Overcast
7:51 AM 68.0 °F 68.0 °F 100% 30.20 in 4.0 mi NE 8.1 mph - N/A   Mostly Cloudy
7:56 AM 68.0 °F 68.0 °F 100% 30.20 in 3.0 mi NE 10.4 mph - N/A   Mostly Cloudy
8:14 AM 68.0 °F 68.0 °F 100% 30.20 in 3.0 mi NE 10.4 mph - N/A   Overcast
8:45 AM 68.0 °F 68.0 °F 100% 30.21 in 3.0 mi NE 6.9 mph - N/A   Overcast
9:30 AM 69.8 °F 69.8 °F 100% 30.21 in 6.0 mi East 10.4 mph - N/A   Overcast
9:51 AM 71.6 °F 69.8 °F 94% 30.20 in 6.0 mi ESE 9.2 mph - N/A   Mostly Cloudy
10:30 AM 75.2 °F 71.6 °F 89% 30.19 in 9.0 mi ESE 12.7 mph - N/A   Clear
11:11 AM 75.2 °F 71.6 °F 89% 30.18 in 10.0 mi East 9.2 mph - N/A   Mostly Cloudy
11:45 AM 73.4 °F 69.8 °F 88% 30.17 in 10.0 mi NE 8.1 mph - N/A   Mostly Cloudy
12:07 PM 75.2 °F 71.6 °F 89% 30.17 in 10.0 mi ENE 8.1 mph - N/A   Mostly Cloudy
1:04 PM 73.4 °F 69.8 °F 88% 30.16 in 10.0 mi NE 10.4 mph - N/A   Mostly Cloudy
1:34 PM 73.4 °F 71.6 °F 94% 30.15 in 10.0 mi NNE 10.4 mph - N/A   Mostly Cloudy
1:59 PM 73.4 °F 71.6 °F 94% 30.15 in 10.0 mi NE 11.5 mph - N/A   Overcast
2:25 PM 73.4 °F 71.6 °F 94% 30.14 in 10.0 mi NE 12.7 mph - N/A   Overcast
2:45 PM 71.6 °F 69.8 °F 94% 30.13 in 10.0 mi ENE 10.4 mph - N/A   Mostly Cloudy
3:09 PM 71.6 °F 69.8 °F 94% - 6.0 mi NE 11.5 mph - N/A   Mostly Cloudy
3:16 PM 71.6 °F 69.8 °F 94% 30.14 in 0.5 mi NE 9.2 mph - N/A Fog Fog
3:29 PM 71.6 °F 69.8 °F 94% 30.14 in 1.5 mi NE 10.4 mph - N/A   Overcast
3:42 PM 69.8 °F 69.8 °F 100% 30.14 in 2.0 mi ENE 11.5 mph - N/A   Overcast
4:23 PM 69.8 °F 68.0 °F 94% 30.14 in 3.0 mi ENE 11.5 mph - N/A   Overcast